Location: Boissi�res
(45.2500°N, 2.3667°E)
Time: 23:44:04
(UTC+00:00)

ISS - Pass Details

Date: 26 September 2021
Orbit: 417 x 423 km, 51.6° (Epoch: 18 October)

Event Time Altitude Azimuth Distance (km) Brightness Sun altitude
Rises 18:56:10 0° 289° (WNW) 2,364 2.0 -14.1°
Reaches altitude 10° 18:58:29 10° 303° (WNW) 1,501 0.2 -14.5°
Maximum altitude 19:01:24 26° 3° (N) 859 -2.1 -15.0°
Enters shadow 19:03:04 18° 47° (NE) 1,111 -1.9 -15.3°
